Weather in Petrovka

Ukraine / Odesa District     46°30′22″N   29°10′13″E
temp.,
°C
wind,
m/s
gust,
m/s
humid.,
%
clouds,
%
prec.,
mm/h
press.,
hPa
HPBL,
m
1 march, mon
mon123:00+3wnw41074100 0.0 1026414
02:00+2nw4796100 0.5 1025438
05:00+2nw4797100 1.9 1024392
08:00+3nnw4897100 2.7 1026503
11:00+3n5891100 0.6 1028554
14:00+3nne6876100 0.8 1029877
17:00+3nne577293 0.0 1030834
20:00+1n378571 0.0 1032222
2 march, tue
tue223:00+2n377695 0.0 1033533
02:00+2n267797 0.1 1034345
05:00+2nw247696 0.0 1032159
08:00+2w358184 0.0 1033194
11:00+6nw45617 0.0 1031915
14:00+9wnw675513 0.0 1029850
17:00+9wnw510530 0.0 1026748
20:00+6w5126217 0.0 1026272
3 march, wed
wed323:00+6nw615716 0.0 1026548
02:00+4nnw715803 0.0 1027615
05:00+3nnw513870 0.0 1028622
08:00+4n597141 0.0 1030902
11:00+7nnw576121 0.0 10301008
14:00+9nnw564611 0.0 10291102
17:00+8nnw45450 0.0 1028969
20:00+5nne115832 0.0 102922
4 march, thu
thu423:00+4ssw126081 0.0 102822
02:00+3s336578 0.0 102739
05:00+2s34704 0.0 102468
08:00+4s511712 0.0 1023314
11:00+10ssw8115913 0.0 1020797
14:00+12ssw8115010 0.0 1017928
17:00+12sw510537 0.0 1014635
20:00+8s511683 0.0 1014237
5 march, fri
fri523:00+6ssw48767 0.0 1014163
02:00+5sw23743 0.0 101331
05:00+5ssw22680 0.0 101222
08:00+6ssw23670 0.0 1012100
11:00+12ssw464827 0.0 1011425
14:00+15wsw793617 0.0 10091047
17:00+14w493535 0.0 1009292
20:00+10wsw5115236 0.0 1011232